PBO Station Position Time Series. Reference Frame : NAM14
Format Version,1.1.1
4-character ID,LCHS
Station name,Lake_County
Begin Date, 2008-01-10
End Date, 2023-06-26
Release Date, 2023-06-27
Reference position, 36.3764184442 North Latitude, -89.4721175147 East Longitude, 63.08937 meters elevation,
Date, North (mm), East (mm), Vertical (mm), North Std. Deviation (mm), East Std. Deviation (mm),              Vertical Std. Deviation (mm), Quality,
2008-01-10,0.00, 0.00, 0.00, 1.99, 1.71, 7.61, repro,
2008-01-11,-0.27, -2.03, -5.43, 1.94, 1.66, 7.32, repro,
2008-01-12,-0.15, -2.18, -10.44, 1.99, 1.71, 7.51, repro,
2008-01-13,1.18, -1.22, -21.73, 1.96, 1.67, 7.39, repro,
2008-01-14,-0.55, -1.99, -16.77, 1.97, 1.70, 7.56, repro,
2008-01-15,0.15, -0.72, -11.98, 1.94, 1.66, 7.35, repro,
2008-01-16,-0.71, -1.73, -9.97, 2.02, 1.71, 7.81, repro,
2008-01-17,0.42, -1.28, -13.02, 2.04, 1.76, 7.92, repro,
2008-01-18,-1.22, -1.57, -13.28, 1.99, 1.70, 7.62, repro,
2008-01-19,0.15, -2.18, -16.25, 2.00, 1.76, 7.80, repro,
2008-01-20,-0.66, -1.81, -23.66, 1.97, 1.73, 7.59, repro,
2008-01-21,-0.84, -0.86, -22.34, 2.00, 1.78, 7.83, repro,
2008-01-22,0.24, -2.67, -17.03, 2.00, 1.79, 7.88, repro,
2008-01-23,-0.89, -1.98, -17.54, 1.96, 1.74, 7.62, repro,
2008-01-24,-0.20, -2.03, -19.74, 1.98, 1.73, 7.67, repro,
2008-01-25,-0.76, -1.45, -20.97, 2.02, 1.82, 7.96, repro,
2008-01-26,0.53, -1.93, -16.23, 2.03, 1.81, 7.90, repro,
2008-01-27,0.09, -2.46, -15.84, 2.03, 1.80, 7.93, repro,
2008-01-28,-1.93, -1.05, -8.95, 1.99, 1.77, 7.83, repro,
2008-01-29,1.43, -0.88, -7.45, 2.15, 1.89, 8.74, repro,
2008-01-30,-0.26, -1.65, -13.95, 2.19, 1.90, 8.44, repro,
2008-01-31,1.58, -1.83, -15.52, 1.99, 1.78, 7.82, repro,
2008-02-01,-1.13, -2.23, -11.32, 2.02, 1.77, 7.74, repro,
2008-02-02,-1.91, -1.73, -17.30, 2.02, 1.82, 7.92, repro,
2008-02-03,-0.19, -2.38, -18.22, 2.01, 1.76, 7.72, repro,
2008-02-04,-0.38, -0.74, -11.31, 1.94, 1.68, 7.42, repro,
2008-02-05,-0.19, -1.60, -12.17, 2.04, 1.73, 7.89, repro,
2008-02-06,0.91, -0.34, -8.11, 2.27, 1.95, 8.74, repro,
2008-02-07,-0.94, -1.60, -9.96, 2.00, 1.71, 7.54, repro,
2008-02-08,-1.12, -2.50, -11.83, 1.92, 1.68, 7.46, repro,
2008-02-09,-0.15, -2.54, -15.55, 1.92, 1.65, 7.28, repro,
2008-02-10,-0.52, -3.59, -23.19, 1.92, 1.65, 7.32, repro,
2008-02-11,-1.12, -3.22, -18.40, 1.92, 1.65, 7.33, repro,
2008-02-12,0.79, -3.80, -17.52, 1.93, 1.65, 7.39, repro,
2008-02-13,-4.11, -4.20, -19.16, 1.91, 1.64, 7.23, repro,
2008-02-14,-0.99, -1.81, -18.45, 1.90, 1.63, 7.21, repro,
2008-02-15,-0.14, -2.22, -16.15, 1.98, 1.66, 7.53, repro,
2008-02-18,-1.43, -4.05, -15.35, 1.93, 1.65, 7.28, repro,
2008-02-19,-1.47, -2.95, -20.32, 1.91, 1.65, 7.23, repro,
2008-02-20,-0.51, -2.37, -20.17, 1.92, 1.64, 7.28, repro,
2008-02-21,0.78, -1.67, -21.52, 1.94, 1.66, 7.33, repro,
2008-02-22,-0.74, -2.75, -14.89, 1.93, 1.66, 7.34, repro,
2008-02-23,-0.44, -2.90, -17.00, 1.96, 1.66, 7.40, repro,
2008-02-24,0.74, -6.54, -50.32, 15.08, 9.60, 42.95, repro,
2008-02-26,-0.50, -1.89, -14.95, 1.94, 1.72, 7.41, repro,
2008-02-27,-0.48, -1.38, -19.13, 1.92, 1.67, 7.36, repro,
2008-02-28,-1.57, -0.52, -19.85, 2.00, 1.80, 7.70, repro,
2008-02-29,-0.60, -2.44, -14.12, 1.94, 1.67, 7.36, repro,
2008-03-01,-0.52, -0.89, -18.33, 1.97, 1.72, 7.51, repro,
2008-03-02,-1.37, -0.90, -13.09, 1.97, 1.72, 7.51, repro,
2008-03-03,-0.29, -1.32, -7.10, 1.93, 1.67, 7.38, repro,
2008-03-04,0.05, -1.00, -16.27, 1.97, 1.73, 7.55, repro,
2008-03-05,-1.48, -0.65, -16.25, 2.07, 1.75, 7.90, repro,
2008-03-06,-0.83, -0.46, -22.25, 1.98, 1.72, 7.54, repro,
2008-03-07,-1.10, -1.55, -22.28, 1.93, 1.66, 7.34, repro,
2008-03-08,-0.61, -1.59, -17.91, 2.03, 1.78, 7.71, repro,
2008-03-09,-0.82, -0.96, -24.18, 1.98, 1.72, 7.57, repro,
2008-03-10,-1.50, -1.53, -25.28, 1.95, 1.65, 7.37, repro,
2008-03-11,-1.09, -0.93, -18.85, 1.98, 1.71, 7.51, repro,
2008-03-12,-3.14, -1.37, -15.39, 2.02, 1.77, 7.67, repro,
2008-03-13,-1.64, -1.61, -11.06, 2.03, 1.76, 7.62, repro,
2008-03-14,-0.25, -1.10, 0.79, 2.01, 1.76, 7.69, repro,
2008-03-15,-1.03, -1.72, -10.36, 2.01, 1.73, 7.68, repro,
2008-03-16,-0.45, -0.77, -14.10, 2.02, 1.75, 7.62, repro,
2008-03-17,0.23, -0.82, -22.01, 2.17, 1.92, 8.22, repro,
2008-03-18,-2.47, -0.39, -9.69, 2.02, 1.77, 7.67, repro,
2008-03-19,0.75, -2.16, -7.94, 2.02, 1.78, 7.67, repro,
2008-03-20,-1.56, -1.20, -29.52, 1.97, 1.72, 7.35, repro,
2008-03-21,-0.87, -0.34, -17.16, 2.01, 1.78, 7.53, repro,
2008-03-22,-1.67, -1.65, -21.63, 2.02, 1.79, 7.58, repro,
2008-03-23,-0.08, -1.25, -27.70, 2.04, 1.81, 7.63, repro,
2008-03-24,-0.33, -1.99, -28.69, 2.01, 1.78, 7.52, repro,
2008-03-25,-0.52, -1.95, -25.17, 2.03, 1.73, 7.50, repro,
2008-03-26,-0.34, -1.76, -25.79, 2.04, 1.73, 7.58, repro,
2008-03-27,-2.04, -1.66, -6.90, 2.08, 1.81, 7.84, repro,
2008-03-28,-1.71, -1.91, -17.68, 2.04, 1.74, 7.57, repro,
2008-03-29,-0.88, -0.64, -12.45, 1.99, 1.74, 7.36, repro,
2008-03-30,-1.00, -0.58, -21.39, 1.98, 1.71, 7.29, repro,
2008-03-31,-0.45, -1.21, -22.19, 1.98, 1.72, 7.27, repro,
2008-04-01,0.07, -1.72, -22.09, 1.97, 1.71, 7.26, repro,
2008-04-02,-0.27, -2.20, -21.98, 2.01, 1.73, 7.38, repro,
2008-04-03,1.02, -0.38, -14.06, 2.06, 1.77, 7.55, repro,
2008-04-04,0.51, -0.75, -12.86, 2.00, 1.74, 7.33, repro,
2008-04-05,-1.15, -1.64, -18.61, 2.00, 1.76, 7.34, repro,
2008-04-06,-0.59, -1.27, -20.09, 1.97, 1.72, 7.27, repro,
2008-04-07,0.08, -1.36, -19.14, 1.97, 1.72, 7.25, repro,
2008-04-08,-0.82, -1.46, -17.39, 1.98, 1.74, 7.33, repro,
2008-04-09,-1.68, -2.53, -18.52, 1.98, 1.75, 7.38, repro,
2008-04-10,0.04, -1.26, -16.51, 1.99, 1.73, 7.31, repro,
2008-04-11,-0.31, -4.89, -14.92, 2.08, 1.84, 7.64, repro,
2008-04-12,-0.27, -2.60, -17.15, 1.97, 1.71, 7.28, repro,
2008-04-13,-0.33, -2.94, -19.38, 1.97, 1.71, 7.28, repro,
2008-04-14,-1.23, -2.36, -22.84, 1.96, 1.71, 7.26, repro,
2008-04-15,-0.51, -2.47, -15.49, 1.99, 1.75, 7.34, repro,
2008-04-16,-0.63, -1.00, -20.53, 2.01, 1.74, 7.40, repro,
2008-04-17,-1.53, -1.32, -17.18, 1.96, 1.69, 7.27, repro,
2008-04-18,-1.08, -2.18, -9.51, 2.01, 1.75, 7.51, repro,
2008-04-19,-0.13, -1.68, -13.49, 1.95, 1.70, 7.29, repro,
2008-04-20,-1.39, -2.39, -21.85, 1.94, 1.68, 7.21, repro,
2008-04-21,-0.25, -2.32, -14.26, 1.94, 1.69, 7.26, repro,
2008-04-22,-0.76, -2.46, -16.57, 2.02, 1.75, 7.64, repro,
2008-04-23,0.16, -3.43, -11.54, 2.02, 1.75, 7.67, repro,
2008-04-24,-2.23, -0.66, -10.36, 2.00, 1.72, 7.46, repro,
2008-04-25,-2.06, -1.74, -8.94, 2.00, 1.75, 7.47, repro,
2008-04-26,-1.79, -2.19, -3.14, 2.09, 1.79, 7.76, repro,
2008-04-27,0.60, -3.45, -15.77, 1.99, 1.74, 7.43, repro,
2008-04-28,-0.84, -2.24, -17.15, 1.98, 1.75, 7.48, repro,
2008-04-29,0.01, -3.06, -10.63, 2.02, 1.79, 7.66, repro,
2008-04-30,0.21, -1.98, -13.61, 1.98, 1.71, 7.47, repro,
2008-05-01,-0.80, -0.83, -11.64, 2.02, 1.69, 7.53, repro,
2008-05-02,-0.46, -2.46, -14.35, 2.05, 1.87, 7.93, repro,
2008-05-03,-0.44, -1.45, -8.38, 2.01, 1.76, 7.61, repro,
2008-05-04,-0.44, -2.35, -14.43, 1.95, 1.68, 7.31, repro,
2008-05-05,0.34, -2.05, -16.16, 1.98, 1.70, 7.44, repro,
2008-05-06,-0.37, -1.47, -8.07, 2.01, 1.72, 7.56, repro,
2008-05-07,-1.76, -0.13, -4.55, 1.96, 1.68, 7.33, repro,
2008-05-08,-0.36, -2.83, -1.06, 1.99, 1.70, 7.44, repro,
2008-05-09,1.23, -0.34, -13.42, 1.97, 1.68, 7.37, repro,
2008-05-10,0.45, -1.11, -11.00, 1.97, 1.68, 7.40, repro,
2008-05-11,-0.53, -2.38, -2.71, 2.00, 1.69, 7.48, repro,
2008-05-12,0.48, -2.09, -8.52, 1.96, 1.68, 7.31, repro,
2008-05-13,-0.71, -1.45, -17.24, 1.96, 1.70, 7.41, repro,
2008-05-14,1.51, -3.06, -11.51, 2.00, 1.74, 7.64, repro,
2008-05-15,-0.17, -2.70, -5.66, 1.97, 1.72, 7.41, repro,
2008-05-16,0.74, -3.00, -17.10, 1.95, 1.68, 7.28, repro,
2008-05-17,0.88, -2.38, -18.18, 1.96, 1.68, 7.33, repro,
2008-05-18,-0.60, -2.73, -13.97, 1.99, 1.72, 7.53, repro,
2008-05-19,-0.32, -2.18, -10.28, 1.94, 1.68, 7.27, repro,
2008-05-20,-0.10, -3.23, -7.58, 1.95, 1.69, 7.33, repro,
2008-05-21,0.36, -2.30, -5.74, 1.93, 1.67, 7.27, repro,
2008-05-22,1.41, -1.18, -13.19, 1.98, 1.68, 7.43, repro,
2008-05-23,0.25, -2.34, -10.56, 2.00, 1.70, 7.60, repro,
2008-05-24,0.75, -4.29, -6.66, 2.00, 1.71, 7.51, repro,
2008-05-25,0.69, -2.93, -10.23, 1.94, 1.68, 7.33, repro,
2008-05-26,-1.22, -2.53, -36.09, 2.12, 1.88, 8.29, repro,
2008-05-27,0.19, -4.27, -12.62, 2.05, 1.76, 7.92, repro,
2008-05-28,-0.47, -2.04, -20.88, 2.06, 1.73, 7.91, repro,
2008-05-29,0.61, -2.62, -13.94, 2.01, 1.72, 7.63, repro,
2008-05-30,0.06, -4.11, -10.26, 1.99, 1.69, 7.53, repro,
2008-05-31,-2.25, -2.74, -10.13, 2.06, 1.80, 7.96, repro,
2008-06-01,-0.69, -0.66, -18.17, 2.07, 1.76, 7.82, repro,
2008-06-02,-0.38, -1.85, -12.99, 1.97, 1.68, 7.45, repro,
2008-06-03,-1.05, -2.37, 0.46, 2.04, 1.73, 7.76, repro,
2008-06-04,2.45, -1.74, 7.19, 1.97, 1.71, 7.52, repro,
2008-06-05,-1.13, -3.42, 2.63, 1.93, 1.69, 7.34, repro,
2008-06-06,-0.88, -1.54, -9.11, 1.97, 1.76, 7.56, repro,
2008-06-07,-1.09, -1.22, -5.65, 1.99, 1.75, 7.63, repro,
2008-06-08,0.00, -3.11, -9.74, 1.97, 1.74, 7.57, repro,
2008-06-09,0.69, -2.99, -5.08, 2.16, 1.89, 8.13, repro,
2008-06-10,-1.75, -2.42, -5.54, 2.38, 2.12, 8.65, repro,
2008-06-11,-0.34, -3.38, -4.54, 1.95, 1.70, 7.46, repro,
2008-06-12,-0.37, -5.09, -6.75, 2.01, 1.79, 7.72, repro,
2008-06-13,-0.09, -4.00, -23.34, 2.06, 1.78, 7.72, repro,
2008-06-14,-4.37, -3.82, -5.88, 2.21, 1.95, 8.85, repro,
2008-06-15,-0.68, -5.24, -4.46, 1.99, 1.75, 7.70, repro,
2008-06-16,-1.27, -2.79, -7.35, 2.03, 1.76, 7.74, repro,
2008-06-17,-0.15, -3.55, -13.08, 1.94, 1.68, 7.35, repro,
2008-06-18,-0.94, -2.77, -15.96, 2.00, 1.72, 7.59, repro,
2008-06-19,0.45, -3.75, -16.02, 1.99, 1.70, 7.60, repro,
2008-06-20,-0.84, -3.04, -14.96, 1.94, 1.69, 7.37, repro,
2008-06-21,-0.97, -2.55, -3.31, 1.97, 1.69, 7.42, repro,
2008-06-22,-0.79, -4.26, -14.40, 1.95, 1.67, 7.32, repro,
2008-06-23,-1.75, -2.50, -8.36, 1.99, 1.69, 7.43, repro,
2008-06-24,-1.51, -3.78, -13.15, 2.02, 1.73, 7.73, repro,
2008-06-25,-0.03, -4.79, -9.83, 2.06, 1.84, 7.88, repro,
2008-06-26,-0.34, -4.29, -3.82, 2.07, 1.73, 7.86, repro,
2008-06-27,-3.33, -2.52, 3.35, 2.13, 1.83, 8.00, repro,
2008-06-28,-1.89, -1.87, -6.75, 2.02, 1.71, 7.72, repro,
2008-06-29,0.16, -4.12, -7.92, 2.01, 1.70, 7.64, repro,
2008-06-30,-1.24, -1.93, -7.67, 1.95, 1.69, 7.37, repro,
2008-07-01,-2.59, -5.42, -12.71, 1.96, 1.69, 7.37, repro,
2008-07-02,-2.34, -2.55, -6.24, 1.94, 1.69, 7.37, repro,
2008-07-03,-2.78, -3.49, -13.96, 1.94, 1.67, 7.31, repro,
2008-07-04,0.31, -3.85, -4.67, 1.96, 1.68, 7.38, repro,
2008-07-05,-0.18, -2.47, -19.08, 1.95, 1.69, 7.38, repro,
2008-07-06,-1.16, -3.47, -18.16, 1.95, 1.68, 7.35, repro,
2008-07-07,-1.22, -4.21, 1.70, 2.01, 1.72, 7.66, repro,
2008-07-08,-2.82, -2.14, -14.00, 2.04, 1.76, 7.69, repro,
2008-07-09,-0.79, -3.00, -2.21, 2.02, 1.71, 7.70, repro,
2008-07-10,0.08, -3.90, -4.71, 2.25, 2.01, 8.51, repro,
2008-07-11,-2.96, -1.50, -1.77, 2.09, 1.87, 7.98, repro,
2008-07-12,-1.68, -1.43, 0.77, 2.12, 1.85, 8.09, repro,
2008-07-13,1.42, -1.06, -2.01, 2.15, 1.73, 8.14, repro,
2008-07-14,1.34, -4.27, 0.13, 1.94, 1.67, 7.34, repro,
2008-07-15,-1.75, -2.33, -7.13, 1.94, 1.69, 7.34, repro,
2008-07-16,-0.79, -3.18, -6.08, 1.94, 1.68, 7.31, repro,
2008-07-17,-2.85, -2.12, -4.30, 1.93, 1.68, 7.34, repro,
2008-07-18,-1.39, -3.58, -25.99, 2.30, 2.08, 8.94, repro,
2008-07-19,-4.29, -2.38, -4.50, 2.13, 1.88, 8.18, repro,
2008-07-20,-1.48, -1.74, 7.28, 1.95, 1.70, 7.47, repro,
2008-07-21,-0.57, -5.33, -10.32, 1.99, 1.68, 7.43, repro,
2008-07-22,-1.90, -3.85, 9.00, 2.04, 1.80, 7.88, repro,
2008-07-23,-0.33, -4.87, -5.21, 1.99, 1.74, 7.68, repro,
2008-07-24,-4.26, -1.66, 3.14, 2.03, 1.80, 7.77, repro,
2008-07-25,0.58, -2.96, 3.72, 1.95, 1.68, 7.41, repro,
2008-07-26,0.91, -3.63, 2.43, 2.08, 1.81, 7.85, repro,
2008-07-27,-1.54, -4.32, 7.51, 2.00, 1.72, 7.54, repro,
2008-07-28,-1.76, -3.47, 10.75, 1.99, 1.78, 7.76, repro,
2008-07-29,-1.59, -3.05, 0.20, 1.97, 1.80, 7.63, repro,
2008-07-30,-1.94, -1.80, -0.19, 2.00, 1.78, 7.62, repro,
2008-07-31,1.71, 0.68, 1.17, 1.97, 1.73, 7.57, repro,
2008-08-01,-1.21, -3.18, -3.54, 1.93, 1.68, 7.36, repro,
2008-08-02,-1.35, -1.16, -0.95, 1.97, 1.71, 7.50, repro,
2008-08-03,0.23, -1.60, -5.54, 1.98, 1.71, 7.63, repro,
2008-08-04,-2.05, -1.95, -2.90, 1.93, 1.70, 7.40, repro,
2008-08-05,0.24, -2.73, -3.79, 1.95, 1.70, 7.47, repro,
2008-08-06,-1.44, -2.37, -4.45, 2.00, 1.75, 7.67, repro,
2008-08-07,-2.16, -1.07, -1.01, 2.06, 1.86, 7.98, repro,
2008-08-08,-0.11, -2.47, -6.52, 2.00, 1.81, 7.70, repro,
2008-08-09,1.11, -4.22, -8.85, 1.95, 1.75, 7.55, repro,
2008-08-10,-0.50, -0.09, 6.76, 1.98, 1.76, 7.63, repro,
2008-08-11,-1.05, -1.16, -8.82, 1.98, 1.74, 7.52, repro,
2008-08-12,-1.26, 0.11, 1.21, 1.97, 1.73, 7.47, repro,
2008-08-13,0.11, -2.33, 9.29, 1.99, 1.76, 7.59, repro,
2008-08-14,0.26, -3.27, 1.69, 1.96, 1.76, 7.54, repro,
2008-08-15,-1.22, -1.23, -3.11, 1.96, 1.76, 7.55, repro,
2008-08-16,1.47, -2.24, -4.78, 1.97, 1.77, 7.60, repro,
2008-08-17,-0.89, -3.05, -8.37, 2.03, 1.79, 7.69, repro,
2008-08-18,-0.58, -2.13, -4.59, 1.95, 1.74, 7.44, repro,
2008-08-19,-1.67, -2.08, 0.33, 2.00, 1.79, 7.59, repro,
2008-08-20,-0.26, -1.71, 2.15, 1.98, 1.78, 7.58, repro,
2008-08-21,-1.30, -0.91, 0.08, 1.97, 1.78, 7.59, repro,
2008-08-22,-1.83, -1.97, 4.82, 2.02, 1.85, 7.69, repro,
2008-08-23,-1.76, -4.11, 0.78, 1.99, 1.76, 7.51, repro,
2008-08-24,-0.75, -1.66, 1.47, 2.04, 1.80, 7.79, repro,
2008-08-25,-1.72, -2.08, 10.65, 2.05, 1.82, 7.73, repro,
2008-08-26,-1.69, -0.82, 3.27, 2.03, 1.79, 7.84, repro,
2008-08-27,-1.88, -1.59, 9.42, 2.04, 1.84, 7.84, repro,
2008-08-28,-0.94, -0.12, 1.39, 2.05, 1.88, 7.89, repro,
2008-08-29,-1.94, -0.25, 15.37, 2.10, 1.91, 8.15, repro,
2008-08-30,-0.32, 0.14, -3.60, 1.99, 1.80, 7.63, repro,
2008-08-31,-1.17, -1.77, 2.27, 1.99, 1.81, 7.62, repro,
2008-09-01,-3.12, 0.81, 4.95, 2.04, 1.85, 7.87, repro,
2008-09-02,-1.43, -4.17, 7.73, 2.08, 1.86, 7.93, repro,
2008-09-03,-2.70, -0.93, 6.58, 2.07, 1.82, 8.02, repro,
2008-09-04,-1.22, -1.95, 2.39, 2.17, 1.89, 8.21, repro,
2008-09-05,-1.06, -2.07, 4.00, 2.07, 1.85, 7.92, repro,
2008-09-06,-1.39, -2.34, -0.94, 1.98, 1.79, 7.57, repro,
2008-09-07,-1.06, -2.10, -6.64, 2.03, 1.84, 7.77, repro,
2008-09-08,-1.66, -1.73, -4.52, 2.03, 1.83, 7.75, repro,
2008-09-09,-2.52, -1.24, -4.51, 2.00, 1.86, 7.76, repro,
2008-09-10,-2.99, -1.55, -0.62, 2.19, 1.88, 8.22, repro,
2008-09-11,-1.49, -1.40, -3.65, 2.09, 1.90, 8.01, repro,
2008-09-12,-2.71, -0.93, 4.13, 2.13, 1.88, 8.10, repro,
2008-09-13,-1.45, -2.70, 0.41, 2.11, 1.87, 7.95, repro,
2008-09-14,-2.66, 0.31, -3.14, 2.12, 1.93, 8.36, repro,
2008-09-15,-0.66, -1.68, -11.99, 2.03, 1.82, 7.75, repro,
2008-09-16,-1.61, -2.91, -6.54, 2.06, 1.82, 7.94, repro,
2008-09-17,-0.76, -3.65, -11.98, 2.10, 1.83, 8.03, repro,
2008-09-18,-1.07, -2.90, -11.63, 1.99, 1.80, 7.63, repro,
2008-09-19,-2.84, -2.12, -7.60, 2.04, 1.84, 7.89, repro,
2008-09-20,-1.76, -3.33, -11.67, 1.98, 1.79, 7.68, repro,
2008-09-21,-2.03, -3.57, -9.83, 2.00, 1.80, 7.65, repro,
2008-09-22,-2.26, -1.79, -14.73, 2.00, 1.79, 7.67, repro,
2008-09-23,-0.62, -2.92, -8.54, 1.99, 1.81, 7.60, repro,
2008-09-24,-1.36, -4.61, -5.23, 2.07, 1.81, 7.74, repro,
2008-09-25,-1.57, -2.96, -10.41, 1.96, 1.76, 7.52, repro,
2008-09-26,-0.12, -2.71, -4.62, 1.96, 1.75, 7.51, repro,
2008-09-27,-1.29, -3.50, -2.50, 2.07, 1.80, 7.70, repro,
2008-09-28,-2.05, -4.86, -3.93, 1.95, 1.73, 7.43, repro,
2008-09-29,-1.65, -3.77, -1.33, 2.01, 1.77, 7.60, repro,
2008-09-30,-1.79, -4.40, -0.04, 1.97, 1.75, 7.54, repro,
2008-10-01,-1.34, -3.07, -1.72, 2.01, 1.78, 7.62, repro,
2008-10-02,-0.71, -2.58, -0.77, 2.07, 1.79, 7.67, repro,
2008-10-03,-2.44, -3.56, -4.09, 2.07, 1.78, 7.64, repro,
2008-10-04,-1.43, -3.35, -3.64, 2.00, 1.76, 7.54, repro,
2008-10-05,-1.84, -3.24, -1.42, 1.97, 1.74, 7.50, repro,
2008-10-06,-0.39, -3.10, -6.93, 1.97, 1.74, 7.47, repro,
2008-10-07,-1.42, -3.45, -2.53, 2.01, 1.80, 7.78, repro,
2008-10-08,-2.28, -4.11, 8.07, 1.99, 1.74, 7.49, repro,
2008-10-09,-2.11, -1.99, -2.94, 1.92, 1.68, 7.27, repro,
2008-10-10,-1.06, -2.98, -4.61, 1.94, 1.70, 7.37, repro,
2008-10-11,-0.81, -3.00, -9.65, 1.93, 1.70, 7.33, repro,
2008-10-12,-0.69, -2.29, -3.37, 1.92, 1.70, 7.33, repro,
2008-10-13,-0.93, -2.92, -7.17, 1.93, 1.71, 7.37, repro,
2008-10-14,-1.32, -3.21, -15.97, 1.91, 1.68, 7.23, repro,
2008-10-15,-1.45, -1.84, -7.46, 1.98, 1.72, 7.47, repro,
2008-10-16,-0.94, -3.54, -2.55, 2.07, 1.78, 7.77, repro,
2008-10-17,-1.41, -1.98, -7.94, 1.90, 1.70, 7.28, repro,
2008-10-18,-0.85, -2.88, -5.34, 1.92, 1.70, 7.31, repro,
2008-10-19,-0.31, -2.63, -9.37, 1.91, 1.69, 7.26, repro,
2008-10-20,-0.96, -3.89, -12.67, 1.91, 1.69, 7.26, repro,
2008-10-21,-1.15, -3.67, -5.55, 1.93, 1.71, 7.38, repro,
2008-10-22,-0.51, -2.10, -4.22, 1.95, 1.75, 7.44, repro,
2008-10-23,-1.09, -2.93, -5.38, 1.96, 1.75, 7.50, repro,
2008-10-24,-0.48, -2.28, -0.50, 1.96, 1.75, 7.47, repro,
2008-10-25,-2.00, -2.43, -6.78, 1.95, 1.73, 7.37, repro,
2008-10-26,-1.47, -3.04, -8.66, 1.93, 1.71, 7.34, repro,
2008-10-27,-0.15, -3.33, -9.89, 1.92, 1.71, 7.37, repro,
2008-10-28,-1.47, -3.07, -13.93, 1.93, 1.76, 7.43, repro,
2008-10-29,-1.54, -3.13, -8.88, 1.95, 1.78, 7.51, repro,
2008-10-30,-0.69, -1.39, -11.93, 1.92, 1.72, 7.38, repro,
2008-10-31,-1.34, -2.61, -13.99, 1.99, 1.83, 7.87, repro,
2008-11-01,-0.63, -2.19, -5.09, 1.96, 1.77, 7.50, repro,
2008-11-02,-0.42, -1.42, -10.22, 1.94, 1.75, 7.39, repro,
2008-11-03,-1.22, -1.68, -9.32, 1.97, 1.81, 7.56, repro,
2008-11-04,-0.40, -1.97, -6.30, 1.96, 1.77, 7.50, repro,
2008-11-05,-2.34, -0.83, -2.05, 1.96, 1.78, 7.51, repro,
2008-11-06,-0.95, -1.93, 4.73, 1.99, 1.79, 7.76, repro,
2008-11-07,-0.92, -3.03, -3.29, 1.98, 1.78, 7.57, repro,
2008-11-08,-0.29, -2.99, 1.07, 1.93, 1.72, 7.33, repro,
2008-11-09,-0.38, -1.48, 0.85, 1.93, 1.71, 7.30, repro,
2008-11-10,-1.38, -2.16, -3.65, 1.97, 1.77, 7.55, repro,
2008-11-11,-0.50, -1.75, -4.04, 1.97, 1.75, 7.48, repro,
2008-11-12,-0.53, -2.26, 2.00, 1.96, 1.73, 7.41, repro,
2008-11-13,-1.40, -2.63, -2.74, 1.97, 1.77, 7.59, repro,
2008-11-14,-0.76, -2.20, 4.04, 2.07, 1.82, 7.93, repro,
2008-11-15,-0.89, -2.95, -7.08, 1.99, 1.78, 7.58, repro,
2008-11-16,-1.78, -2.82, -8.81, 2.02, 1.80, 7.82, repro,
2008-11-17,-1.18, -2.66, -10.56, 2.06, 1.85, 7.84, repro,
2008-11-18,-0.30, -2.46, -14.66, 2.13, 1.79, 7.80, repro,
2008-11-19,-2.12, -2.17, -13.30, 1.93, 1.70, 7.37, repro,
2008-11-20,-0.35, -3.57, -16.49, 2.01, 1.77, 7.79, repro,
2008-11-21,-0.68, -3.25, -25.03, 2.00, 1.76, 7.72, repro,
2008-11-22,-1.18, -1.96, -20.29, 2.01, 1.78, 7.69, repro,
2008-11-23,-0.66, -2.22, -16.78, 1.98, 1.76, 7.74, repro,
2008-11-24,-1.01, -2.67, -17.89, 1.96, 1.77, 7.70, repro,
2008-11-25,-2.41, -3.67, -8.75, 1.94, 1.72, 7.46, repro,
2008-11-26,-1.28, -2.04, -11.42, 1.90, 1.69, 7.30, repro,
2008-11-27,-1.30, -2.66, -11.57, 1.91, 1.69, 7.31, repro,
2008-11-28,-1.10, -1.93, -8.33, 1.92, 1.72, 7.40, repro,
2008-11-29,-0.55, -2.83, 0.62, 1.92, 1.74, 7.48, repro,
2008-11-30,-1.18, -1.95, 5.92, 1.94, 1.74, 7.58, repro,
2008-12-01,-1.77, -2.51, -2.72, 1.89, 1.69, 7.32, repro,
2008-12-02,-0.97, -1.78, -7.31, 1.94, 1.73, 7.47, repro,
2008-12-03,-1.98, -1.97, -8.83, 1.93, 1.71, 7.41, repro,
2008-12-04,-0.55, -3.77, -17.63, 1.98, 1.75, 7.71, repro,
2008-12-05,-1.50, -2.14, -11.91, 1.93, 1.72, 7.50, repro,
2008-12-06,-2.86, -2.52, -9.21, 1.93, 1.74, 7.52, repro,
2008-12-07,-0.95, -2.83, -9.48, 1.92, 1.73, 7.47, repro,
2008-12-08,-0.97, -1.24, -8.38, 1.92, 1.68, 7.33, repro,
2008-12-09,-2.44, -1.83, -5.63, 1.94, 1.72, 7.49, repro,
2008-12-10,-0.32, -3.51, -6.71, 1.91, 1.68, 7.39, repro,
2008-12-11,-1.11, -2.07, -10.75, 1.98, 1.73, 7.51, repro,
2008-12-12,-1.65, -2.91, -15.36, 1.94, 1.68, 7.30, repro,
2008-12-13,-2.52, -1.49, -17.27, 1.91, 1.66, 7.30, repro,
2008-12-14,-2.03, -1.86, -12.53, 1.92, 1.66, 7.30, repro,
2008-12-15,-0.23, -3.69, -13.73, 1.91, 1.67, 7.32, repro,
2008-12-16,-1.34, -3.18, -18.12, 1.89, 1.66, 7.25, repro,
2008-12-17,-0.47, -2.80, -16.51, 1.91, 1.70, 7.38, repro,
2008-12-18,-0.68, -2.01, -14.83, 1.90, 1.66, 7.23, repro,
2008-12-19,-1.06, -3.38, -23.55, 2.04, 1.79, 7.70, repro,
2008-12-20,-1.07, -4.12, -18.18, 1.92, 1.67, 7.34, repro,
2008-12-21,-0.06, -3.26, -16.81, 1.90, 1.66, 7.25, repro,
2008-12-22,-1.57, -2.75, -24.29, 1.89, 1.68, 7.30, repro,
2008-12-23,-0.89, -0.31, -18.95, 1.91, 1.68, 7.35, repro,
2008-12-24,-1.49, -2.22, -9.15, 1.95, 1.71, 7.53, repro,
2008-12-25,-1.42, -1.93, -14.83, 1.92, 1.67, 7.34, repro,
2008-12-26,-1.94, -1.02, -6.18, 1.90, 1.66, 7.27, repro,
2008-12-27,-1.34, -2.50, -9.70, 1.90, 1.66, 7.27, repro,
2008-12-28,-1.70, -2.67, -10.38, 1.90, 1.69, 7.34, repro,
2008-12-29,-0.50, -1.94, -15.99, 1.92, 1.67, 7.36, repro,
2008-12-30,-1.70, -1.68, -23.07, 1.94, 1.71, 7.51, repro,
2008-12-31,0.15, -3.67, -16.73, 1.91, 1.66, 7.32, repro,
2009-01-01,-0.98, -1.07, -18.34, 1.96, 1.72, 7.70, repro,
2009-01-02,-1.41, -2.31, -8.60, 1.92, 1.70, 7.45, repro,
2009-01-03,-1.02, -1.96, -10.54, 1.94, 1.72, 7.54, repro,
2009-01-04,-0.84, -1.69, -14.59, 1.93, 1.71, 7.52, repro,
2009-01-05,0.17, -3.38, -11.53, 1.93, 1.69, 7.44, repro,
2009-01-06,-2.07, -4.58, -0.74, 1.93, 1.70, 7.45, repro,
2009-01-07,-1.74, -2.11, 0.29, 1.93, 1.70, 7.44, repro,
2009-01-08,-1.73, -2.50, -6.71, 1.98, 1.73, 7.60, repro,
2009-01-09,-0.78, -0.99, -18.36, 2.05, 1.82, 8.03, repro,
2009-01-10,-1.40, -3.61, -12.63, 1.97, 1.75, 7.63, repro,
2009-01-11,-1.68, -2.60, -19.32, 1.95, 1.72, 7.62, repro,
2009-01-12,-2.57, -2.37, -20.86, 1.98, 1.78, 7.79, repro,
2009-01-13,-1.02, -2.24, -21.17, 2.00, 1.80, 7.82, repro,
2009-01-14,-0.73, -2.93, -23.71, 1.98, 1.80, 7.82, repro,
2009-01-15,0.02, -2.60, -21.47, 1.93, 1.71, 7.65, repro,
2009-01-16,-1.46, -2.28, -27.80, 1.92, 1.69, 7.51, repro,
2009-01-17,-2.44, -2.03, -23.95, 1.99, 1.80, 7.88, repro,
2009-01-18,-1.44, -2.24, -14.85, 1.96, 1.73, 7.52, repro,
2009-01-19,-1.24, -3.23, -12.43, 1.98, 1.79, 7.86, repro,
2009-01-20,-0.57, -2.69, -16.10, 1.99, 1.80, 7.92, repro,
2009-01-21,-0.45, -0.75, -16.77, 1.96, 1.75, 7.68, repro,
2009-01-22,-1.18, -2.18, -12.86, 1.98, 1.78, 7.83, repro,
2009-01-23,-0.80, -1.69, -22.65, 1.90, 1.65, 7.26, repro,
2009-01-24,-0.69, -3.05, -29.55, 2.03, 1.82, 8.10, repro,
2009-01-25,-0.58, -2.27, -20.03, 1.95, 1.73, 7.70, repro,
2009-01-26,0.04, -1.63, -18.04, 1.95, 1.69, 7.50, repro,
2009-01-27,0.67, -6.41, -15.74, 1.98, 1.75, 7.66, repro,
2009-01-28,-2.10, -6.78, -6.75, 1.90, 1.65, 7.24, repro,
2009-01-29,-3.24, -5.48, -14.45, 1.90, 1.65, 7.26, repro,
2009-01-30,-2.00, -3.82, -11.93, 1.90, 1.65, 7.26, repro,
2009-01-31,-1.45, -1.53, -14.84, 1.90, 1.65, 7.26, repro,
2009-02-01,-0.01, -2.06, -15.04, 1.91, 1.66, 7.32, repro,
2009-02-02,0.17, -2.10, -21.62, 1.93, 1.69, 7.50, repro,
2009-02-03,-1.08, -2.75, -21.22, 1.89, 1.64, 7.21, repro,
2009-02-04,-0.87, -2.25, -25.20, 1.89, 1.65, 7.25, repro,
2009-02-05,-0.48, -1.22, -25.03, 1.90, 1.67, 7.32, repro,
2009-02-06,-0.53, -1.94, -18.70, 1.94, 1.69, 7.53, repro,
2009-02-07,-0.82, -1.09, -15.19, 1.90, 1.65, 7.28, repro,
2009-02-08,-1.00, -2.63, -17.28, 1.93, 1.67, 7.45, repro,
2009-02-09,-0.36, -1.18, -19.96, 1.91, 1.67, 7.32, repro,
2009-02-10,-0.73, -0.88, -8.78, 1.91, 1.67, 7.33, repro,
2009-02-11,-1.09, -2.51, -9.67, 2.02, 1.72, 7.69, repro,
2009-02-12,0.35, -1.70, -11.70, 1.95, 1.67, 7.39, repro,
2009-02-13,-0.32, -1.37, -15.92, 1.90, 1.64, 7.29, repro,
2009-02-14,-0.80, -2.18, -19.66, 1.90, 1.64, 7.24, repro,
2009-02-15,0.97, -1.01, -20.77, 1.93, 1.68, 7.35, repro,
2009-02-16,-0.26, -0.99, -21.10, 1.94, 1.67, 7.32, repro,
2009-02-17,0.06, -0.83, -18.60, 1.94, 1.68, 7.45, repro,
2009-02-18,0.92, -1.69, -8.63, 2.01, 1.76, 7.67, repro,
2009-02-19,-1.96, -2.73, -18.24, 1.94, 1.68, 7.34, repro,
2009-02-20,-1.37, -1.21, -18.89, 1.96, 1.72, 7.41, repro,
2009-02-21,0.31, -2.33, -19.50, 2.02, 1.77, 7.52, repro,
2009-02-22,-1.80, -1.78, -30.13, 1.99, 1.74, 7.57, repro,
2009-02-23,-0.17, -0.78, -28.35, 1.98, 1.73, 7.52, repro,
2009-02-24,-1.78, -1.22, -24.42, 2.04, 1.78, 7.67, repro,
2009-02-25,-2.47, -0.85, -16.76, 7.52, 34.71, 179.34, repro,
2009-02-26,-0.25, -0.95, -12.69, 2.02, 1.77, 7.65, repro,